Location: ?????
(31.8092°N, 35.2590°E)
Time: 02:55:39
(UTC+00:00)

Meteor 2-11 Rocket - Visible Passes

Search period start: 23 October 2021 00:00
Search period end: 02 November 2021 00:00
Orbit: 940 x 956 km, 82.5° (Epoch: 22 October)

Date Brightness Start Highest point End Pass type
(mag) Time Alt. Az. Time Alt. Az. Time Alt. Az.
23 Oct 5.4 15:49:09 10° SE 15:53:56 24° E 15:58:43 10° NE visible
23 Oct 5.7 17:32:48 10° SW 17:38:26 38° W 17:44:08 10° NNW visible
24 Oct 7.2 02:47:27 10° NE 02:50:53 15° ENE 02:54:18 10° ESE visible
24 Oct 4.8 16:05:13 10° SSE 16:10:54 40° E 16:16:34 10° NNE visible
24 Oct 6.5 17:51:02 10° SW 17:55:47 23° WNW 18:00:33 10° NNW visible
25 Oct 6.8 03:03:20 10° NNE 03:08:19 26° ENE 03:13:14 10° SE visible
25 Oct 4.3 16:21:51 10° S 16:27:56 68° E 16:34:02 10° NNE visible
25 Oct 7.1 18:10:17 10° W 18:13:14 14° WNW 18:16:12 10° NW visible
26 Oct 5.9 03:19:52 10° N 03:25:38 42° E 03:31:19 10° SSE visible
26 Oct 4.6 16:38:55 10° SSW 16:45:03 75° W 16:51:13 10° N visible
27 Oct 5.6 15:13:32 10° SE 15:17:52 20° E 15:22:13 10° NE visible
27 Oct 5.5 16:56:27 10° SSW 17:02:16 45° W 17:08:07 10° N visible
28 Oct 7.4 02:12:04 10° NE 02:14:37 13° ENE 02:17:10 10° E visible
28 Oct 5.0 15:29:21 10° SSE 15:34:48 34° E 15:40:15 10° NNE visible
28 Oct 6.4 17:14:28 10° SW 17:19:34 27° WNW 17:24:43 10° NNW visible
29 Oct 6.9 02:27:30 10° NNE 02:32:05 22° ENE 02:36:37 10° SE visible
29 Oct 4.5 15:45:50 10° S 15:51:49 57° E 15:57:49 10° NNE visible
29 Oct 7.0 17:33:17 10° WSW 17:36:59 16° WNW 17:40:41 10° NW visible
30 Oct 6.1 02:43:53 10° NNE 02:49:26 36° ENE 02:54:56 10° SE visible
30 Oct 4.5 16:02:45 10° S 16:08:54 87° W 16:15:05 10° N visible
31 Oct 5.1 03:00:40 10° N 03:06:41 60° E 03:12:38 10° SSE visible
31 Oct 5.2 16:20:08 10° SSW 16:26:06 53° W 16:32:05 10° N visible
01 Nov 7.5 01:37:26 10° ENE 01:38:21 10° ENE 01:39:15 10° ENE visible
01 Nov 4.4 03:17:44 10° N 03:23:50 83° W 03:29:54 10° S visible
01 Nov 6.2 16:37:59 10° SW 16:43:22 32° WNW 16:48:47 10° NNW visible
